Wind_Speed
24 23 24 24 25 23 23 25 25 23 21 19 17 16 15 14 12 11 10 9 7 5 4 5 5 5 6 6 5 5 5 5 4 4 5 5 5 4 4 5 5 6 7 7 6 6 5 5 4
23 24 23 23 24 23 24 25 25 23 21 20 19 18 16 14 13 11 10 9 7 6 5 5 6 6 6 6 5 5 5 5 5 6 5 5 4 4 5 5 5 6 6 6 5 5 4 4 4
23 23 22 23 22 24 24 24 24 23 21 21 20 18 17 15 13 11 10 9 7 6 5 5 6 6 6 6 6 6 5 5 5 5 5 5 6 5 5 6 5 5 5 5 5 5 4 4 3
22 23 22 22 23 24 24 24 24 24 23 21 20 19 17 15 14 12 10 9 7 7 6 6 6 6 6 6 6 6 6 5 5 6 5 5 6 6 6 6 5 5 4 4 4 4 4 3 3
21 22 22 22 23 24 25 24 24 24 22 21 21 19 17 16 14 13 11 9 8 7 7 6 7 6 5 6 6 6 6 5 6 6 5 5 5 5 5 6 5 4 4 4 4 3 4 4 3
20 20 22 23 24 25 25 26 25 24 22 21 20 19 18 16 15 13 12 10 9 8 7 6 6 6 6 6 6 6 6 6 6 6 5 5 5 5 5 4 4 4 4 4 4 3 4 4 4
18 19 22 23 25 25 26 26 26 24 22 22 21 20 19 18 16 15 13 11 10 9 8 8 7 6 6 5 6 6 5 5 5 6 6 5 4 4 4 4 4 3 3 4 4 3 3 3 3
17 19 21 22 24 25 25 26 25 24 23 22 23 22 20 19 17 15 14 13 11 11 10 9 8 6 6 5 5 5 5 5 5 5 5 5 5 4 4 3 3 3 3 3 3 3 3 3 3
15 17 20 22 23 23 24 25 24 24 23 22 23 23 21 19 17 16 15 14 12 12 12 10 9 8 7 5 5 5 4 4 5 5 5 5 4 4 3 3 3 3 3 3 3 3 3 3 4
13 16 18 20 21 23 24 24 24 24 23 23 22 22 22 20 17 16 15 15 14 13 12 11 10 9 8 7 5 4 4 4 4 4 5 5 4 3 4 3 3 3 3 3 3 3 3 3 4
12 14 15 17 19 21 22 23 23 24 24 23 22 22 21 20 18 17 16 16 15 13 13 12 11 10 9 7 6 5 4 3 4 4 5 5 5 4 4 4 3 3 3 3 3 3 3 3 3
10 11 12 14 17 19 20 21 22 23 23 22 22 22 21 20 19 18 17 16 15 14 13 12 12 11 11 9 7 6 5 4 5 5 5 5 4 4 3 4 4 3 3 3 4 3 3 3 3
7 9 10 12 14 16 18 19 20 21 21 21 21 21 21 20 19 18 17 17 16 15 14 13 13 12 11 10 8 6 5 5 5 5 5 5 4 3 3 3 4 3 3 3 3 3 3 3 3
4 6 8 10 12 14 16 17 18 19 19 19 19 20 20 20 20 19 18 18 17 16 15 13 13 12 11 11 10 7 6 5 4 4 4 4 4 3 3 3 4 3 3 3 3 3 3 4 4
3 4 6 8 10 12 13 14 16 17 17 18 18 18 19 20 20 19 19 18 17 16 15 13 12 12 11 11 10 8 6 5 4 3 3 4 4 3 3 3 4 3 3 3 4 4 4 4 4
5 3 3 4 7 8 10 12 13 14 15 16 17 17 17 18 19 19 18 18 17 16 15 14 12 11 11 10 10 8 6 5 4 3 3 3 3 3 3 3 3 3 3 3 4 4 4 4 4
7 4 2 2 3 6 8 9 10 11 12 14 16 16 16 17 18 18 18 18 17 16 15 14 12 11 11 10 9 8 7 6 4 3 2 1 2 2 2 2 3 3 3 4 4 4 5 4 5
9 7 4 2 1 3 5 6 7 8 10 12 13 14 15 16 17 17 17 17 16 16 15 14 12 11 11 11 10 8 7 6 5 3 2 1 0 1 1 2 2 3 3 4 4 5 5 6 6
13 10 8 5 4 4 3 4 5 6 8 10 11 12 14 14 15 16 16 16 15 15 15 14 13 12 11 10 10 9 7 6 4 4 3 1 0 1 2 2 2 2 3 4 5 6 6 6 6
16 13 12 9 8 6 4 3 3 6 7 8 9 10 12 13 13 14 15 15 14 14 14 14 13 12 11 10 9 9 8 7 5 4 3 2 1 2 3 3 2 2 3 4 5 5 6 7 7
20 17 14 13 11 9 7 5 5 6 7 7 7 9 10 11 12 13 13 13 13 13 12 12 12 11 11 10 9 9 8 7 5 5 4 3 2 1 2 3 3 3 4 5 6 6 7 7 8
22 19 17 15 15 12 10 8 6 6 7 8 7 7 9 10 10 11 12 12 12 12 11 12 11 11 11 10 9 9 8 7 6 5 4 4 3 3 3 3 4 5 5 5 6 7 7 8 8
24 23 21 18 17 15 14 12 9 8 8 9 8 7 8 8 9 10 10 10 11 11 10 11 11 10 10 10 9 9 8 7 6 5 4 4 4 4 4 4 4 5 6 6 7 8 8 9 9
26 25 23 21 20 19 16 16 12 10 10 10 9 8 8 8 8 9 9 9 9 9 9 9 9 9 9 9 9 9 8 8 7 7 5 4 4 4 4 5 5 6 7 7 8 9 9 10 11
28 27 26 25 24 22 19 19 16 13 11 11 10 9 8 8 8 8 9 8 9 9 8 9 9 9 9 9 9 9 8 8 8 7 7 6 6 6 6 6 7 7 7 8 9 10 10 11 12
29 28 27 26 25 23 23 22 19 15 13 13 12 11 10 8 8 8 8 9 8 8 8 8 9 9 9 9 9 9 8 8 8 8 8 8 8 8 7 7 8 8 8 9 9 10 10 11 12
30 29 28 27 26 25 25 24 21 18 16 14 13 13 12 10 9 9 9 9 8 8 7 7 8 9 9 9 9 9 9 9 9 9 9 9 9 8 8 8 9 9 9 9 10 10 11 12 13
30 30 29 28 27 26 26 25 22 19 17 15 15 14 13 12 11 10 10 10 9 8 8 8 8 9 9 10 10 10 9 9 10 10 9 10 9 9 9 9 9 9 10 10 10 11 12 12 13
30 30 30 29 28 27 26 24 21 19 18 16 16 15 14 13 13 12 11 10 10 10 9 9 9 9 10 10 10 10 10 10 10 10 10 10 10 10 10 10 9 10 10 11 11 12 12 12 13
30 30 30 30 29 28 27 25 21 19 19 18 17 16 16 15 13 13 11 11 11 11 10 10 10 10 11 11 11 11 11 11 11 11 11 11 11 12 12 12 11 11 11 12 12 12 13 13 14
Wind_Direction
59 57 56 56 55 53 51 52 51 49 47 48 49 49 50 52 53 54 54 54 60 68 75 90 103 113 113 109 103 104 106 106 102 103 103 114 108 106 115 125 121 119 121 132 137 136 135 134 134
58 56 56 55 55 54 52 51 49 46 43 45 47 48 47 49 50 52 54 52 55 65 75 84 98 104 107 104 103 101 103 100 102 100 103 111 115 108 118 121 115 116 119 124 131 133 132 132 133
59 56 56 57 56 56 54 52 50 45 42 43 45 46 45 45 48 50 51 50 51 61 69 79 93 95 100 99 97 98 98 104 106 103 114 123 123 120 122 117 111 110 115 119 124 126 133 135 145
60 57 56 56 56 56 55 53 50 44 41 41 44 45 45 43 45 47 48 46 47 57 63 74 88 91 92 93 94 97 102 112 108 103 110 119 126 127 128 123 117 118 117 119 123 124 135 143 150
60 57 56 55 55 55 54 52 50 45 41 40 44 46 45 42 43 45 47 48 47 54 64 72 78 87 91 91 93 99 105 108 113 114 110 111 121 121 122 126 125 126 130 132 129 130 134 142 147
59 58 56 55 52 52 52 50 49 44 40 39 42 46 44 41 41 43 46 49 50 53 61 67 71 81 93 99 101 103 106 104 99 102 110 109 101 103 117 125 124 130 140 142 141 136 133 144 151
58 58 56 54 52 50 50 49 47 44 41 40 42 45 44 41 39 42 46 50 55 57 63 66 65 71 85 99 103 104 105 105 103 102 105 106 106 108 119 126 126 121 128 145 147 144 143 145 144
60 58 56 55 53 49 50 49 47 45 42 41 42 42 41 40 40 42 46 52 56 59 62 64 64 68 82 95 105 109 108 106 109 108 107 111 112 111 113 121 125 120 128 147 152 147 153 149 139
62 58 57 57 54 50 49 48 46 44 43 42 41 40 39 38 39 43 47 51 54 58 60 60 60 66 75 87 104 108 108 104 103 108 108 118 118 117 119 118 122 124 131 142 151 149 153 149 140
66 61 58 57 56 51 48 47 45 43 42 41 40 39 38 37 38 42 47 51 53 57 60 60 62 64 71 80 90 105 108 108 110 117 118 117 123 128 130 128 119 121 134 142 145 149 153 150 144
68 62 61 57 55 53 49 46 45 43 40 38 39 38 36 36 38 42 47 49 51 54 58 60 61 61 63 71 76 86 105 112 121 124 121 122 127 134 137 133 133 129 132 138 144 150 153 154 150
73 66 64 57 53 54 50 45 43 41 39 37 37 37 35 35 36 40 43 46 47 50 55 57 57 58 59 64 70 77 91 108 126 122 121 123 128 134 148 149 150 142 139 136 144 161 156 156 163
82 67 67 61 54 51 48 45 39 37 36 36 37 37 36 34 36 38 40 43 45 46 49 54 54 55 54 54 61 73 84 94 113 123 126 135 140 143 153 156 160 154 151 150 157 168 169 165 171
100 77 76 69 58 49 44 40 36 33 33 34 36 37 36 36 37 38 39 41 42 43 46 50 52 52 50 49 52 63 80 94 101 120 131 144 151 154 160 159 167 166 167 171 175 176 174 180 188
142 96 88 75 61 47 42 40 36 32 31 31 34 35 35 36 36 36 38 39 39 40 42 46 49 49 47 45 46 54 71 83 91 106 131 141 147 149 155 168 176 183 182 183 185 189 194 201 206
194 166 116 80 63 45 40 39 36 31 26 28 30 32 32 32 32 34 35 36 37 38 40 43 46 46 43 41 43 47 57 68 82 95 116 135 147 164 177 178 193 199 201 198 195 199 203 210 218
213 212 189 109 65 38 31 34 28 25 21 23 27 29 29 29 29 30 32 34 34 35 36 39 42 42 41 40 41 47 50 56 61 69 97 116 133 145 166 185 195 206 210 208 207 208 217 229 240
221 225 227 222 294 6 16 28 21 18 15 17 21 25 25 25 26 28 29 30 31 32 34 37 39 40 40 39 39 42 41 44 48 52 55 48 108 159 180 193 201 215 220 221 223 230 236 244 252
224 231 237 241 261 298 330 356 7 4 5 8 14 18 21 21 23 26 28 29 29 30 30 32 35 36 35 35 34 34 34 37 42 42 43 24 299 229 208 208 220 235 236 236 240 244 245 248 254
226 232 236 241 250 263 287 310 333 346 346 351 2 10 14 16 19 23 27 28 27 27 26 28 31 32 31 30 30 31 32 35 32 24 22 5 301 254 225 229 245 255 257 258 256 255 256 259 261
229 233 237 240 248 257 270 278 300 324 327 331 341 358 7 11 15 19 23 25 24 23 22 22 25 26 26 24 25 27 27 27 26 21 14 359 338 315 269 261 263 266 269 273 269 269 272 272 269
230 234 237 242 247 255 265 267 276 300 315 321 324 340 354 1 9 14 17 19 19 20 20 21 21 21 22 22 20 20 21 20 15 9 6 3 349 328 310 283 275 275 278 281 278 274 274 275 273
232 235 238 241 248 252 259 266 268 284 298 309 310 323 337 348 358 5 8 10 11 14 16 18 19 18 18 19 19 16 17 18 13 6 357 357 352 330 318 302 285 282 282 283 281 277 276 278 279
234 236 240 242 248 251 257 262 265 274 286 295 300 309 319 329 343 352 357 360 2 5 9 11 12 12 10 11 13 10 7 6 5 1 351 342 334 319 313 308 298 291 290 288 287 283 280 279 281
234 237 240 243 247 252 257 261 265 266 272 282 290 296 302 316 328 337 346 352 352 356 1 2 1 4 3 2 4 2 358 357 355 348 344 332 320 312 308 307 306 299 289 290 290 288 287 286 285
235 238 241 246 250 253 255 259 264 262 265 274 281 286 289 300 316 327 339 348 347 346 350 354 354 356 358 357 358 358 355 353 351 342 337 330 317 311 309 308 306 305 297 291 292 292 291 290 290
232 236 240 245 248 251 253 257 261 263 263 266 274 277 283 290 302 314 328 336 339 339 340 341 344 345 345 345 347 348 344 343 343 334 329 328 323 319 315 312 308 305 304 302 293 292 292 291 292
232 234 237 242 247 250 253 257 260 261 262 263 268 269 278 283 290 302 313 321 325 327 325 325 330 336 338 338 338 341 337 335 336 332 327 324 323 325 320 316 314 312 309 310 306 298 295 296 296
233 235 238 241 246 250 254 257 261 260 258 257 260 264 268 276 283 291 303 311 316 317 316 318 317 323 327 329 330 330 331 332 331 329 328 326 322 322 323 320 316 314 309 308 308 306 302 302 303
232 234 238 241 245 249 254 257 259 260 259 257 259 262 266 272 279 287 294 301 305 312 312 316 313 318 320 320 321 322 322 326 327 325 323 321 319 318 316 313 311 309 309 307 305 306 305 305 305
Height
5896 5894 5893 5891 5889 5887 5884 5883 5880 5879 5878 5877 5875 5874 5873 5873 5873 5874 5871 5869 5869 5869 5869 5868 5867 5868 5869 5869 5870 5870 5870 5871 5872 5873 5874 5875 5876 5877 5878 5879 5881 5882 5883 5884 5885 5886 5887 5887 5888
5899 5897 5897 5894 5891 5889 5887 5884 5882 5881 5881 5879 5877 5876 5875 5874 5873 5872 5871 5871 5871 5870 5869 5869 5868 5869 5869 5870 5870 5871 5871 5872 5873 5874 5875 5876 5877 5878 5879 5880 5881 5882 5884 5884 5885 5886 5887 5888 5889
5902 5901 5900 5897 5894 5892 5890 5887 5885 5884 5883 5881 5879 5878 5877 5876 5875 5874 5873 5872 5872 5871 5870 5870 5869 5870 5870 5870 5871 5871 5872 5873 5874 5875 5876 5877 5878 5879 5880 5881 5882 5883 5884 5885 5886 5887 5888 5889 5890
5905 5904 5902 5900 5897 5895 5892 5890 5888 5886 5885 5883 5882 5880 5879 5878 5877 5876 5874 5874 5873 5872 5871 5870 5870 5870 5871 5871 5871 5872 5873 5874 5875 5876 5877 5878 5879 5880 5881 5882 5883 5884 5885 5886 5887 5888 5888 5889 5890
5908 5907 5905 5902 5900 5897 5895 5892 5890 5888 5887 5886 5884 5882 5881 5880 5879 5877 5876 5875 5874 5873 5872 5871 5871 5871 5871 5872 5872 5873 5874 5875 5875 5876 5877 5878 5879 5880 5882 5883 5884 5884 5885 5886 5887 5888 5889 5890 5891
5911 5909 5907 5904 5902 5900 5897 5895 5892 5891 5890 5889 5887 5885 5884 5883 5881 5879 5877 5876 5875 5874 5873 5873 5872 5872 5872 5873 5873 5874 5874 5875 5876 5876 5878 5879 5879 5881 5882 5883 5884 5885 5886 5887 5888 5889 5889 5890 5891
5913 5911 5909 5907 5905 5903 5901 5898 5895 5894 5893 5891 5889 5887 5886 5884 5883 5881 5879 5878 5877 5876 5875 5874 5873 5873 5873 5873 5874 5874 5875 5876 5877 5877 5878 5879 5880 5881 5882 5883 5884 5885 5886 5887 5888 5889 5890 5890 5891
5915 5914 5911 5909 5908 5906 5904 5901 5899 5898 5896 5894 5892 5890 5888 5887 5885 5883 5881 5880 5878 5877 5876 5875 5875 5874 5874 5874 5874 5875 5876 5877 5877 5878 5879 5880 5881 5882 5883 5884 5885 5886 5886 5887 5888 5889 5890 5890 5891
5917 5917 5914 5912 5911 5909 5907 5905 5903 5902 5899 5897 5895 5893 5891 5889 5887 5885 5883 5882 5880 5879 5878 5877 5876 5876 5875 5875 5875 5876 5876 5877 5878 5879 5879 5880 5881 5882 5883 5884 5885 5886 5887 5887 5888 5889 5890 5891 5892
5919 5918 5917 5915 5914 5912 5910 5908 5907 5905 5902 5900 5898 5896 5893 5892 5890 5888 5886 5884 5882 5881 5880 5879 5878 5877 5877 5876 5876 5877 5877 5878 5878 5879 5880 5881 5882 5882 5883 5885 5885 5886 5887 5888 5889 5889 5890 5891 5892
5920 5920 5919 5917 5916 5914 5913 5911 5910 5907 5905 5903 5901 5899 5897 5895 5892 5890 5888 5886 5884 5883 5882 5881 5880 5879 5878 5878 5877 5878 5878 5878 5879 5880 5880 5881 5882 5883 5884 5885 5886 5886 5887 5888 5889 5890 5891 5892 5893
5922 5922 5920 5919 5918 5917 5915 5914 5912 5911 5909 5907 5904 5902 5900 5897 5895 5893 5890 5888 5887 5885 5884 5882 5881 5881 5880 5879 5879 5879 5879 5879 5879 5880 5881 5882 5883 5884 5884 5885 5886 5887 5887 5888 5889 5890 5891 5892 5893
5923 5923 5922 5921 5920 5919 5918 5917 5915 5913 5912 5909 5907 5905 5902 5900 5898 5895 5893 5891 5889 5887 5886 5884 5883 5882 5882 5881 5880 5880 5880 5880 5880 5881 5881 5882 5883 5884 5885 5885 5886 5887 5888 5888 5889 5890 5891 5892 5893
5924 5924 5923 5923 5922 5921 5920 5919 5918 5916 5914 5912 5910 5908 5905 5903 5901 5898 5895 5893 5891 5889 5888 5887 5886 5885 5884 5882 5881 5881 5881 5881 5881 5881 5882 5883 5883 5884 5885 5886 5886 5887 5888 5889 5889 5890 5891 5892 5893
5924 5924 5924 5924 5923 5922 5922 5921 5920 5919 5917 5915 5913 5910 5908 5906 5903 5901 5898 5896 5894 5892 5890 5889 5888 5887 5886 5885 5883 5883 5882 5882 5882 5882 5882 5883 5884 5884 5885 5886 5887 5887 5888 5889 5889 5890 5891 5892 5893
5924 5924 5925 5925 5924 5923 5925 5923 5922 5920 5919 5917 5915 5912 5910 5908 5906 5903 5901 5898 5896 5894 5892 5891 5890 5888 5887 5886 5885 5885 5884 5883 5883 5883 5883 5883 5884 5884 5885 5886 5887 5888 5888 5889 5889 5890 5891 5892 5892
5923 5923 5924 5925 5924 5924 5924 5924 5923 5922 5921 5919 5917 5914 5912 5910 5907 5905 5903 5900 5898 5896 5894 5893 5891 5890 5889 5888 5887 5886 5885 5884 5884 5884 5884 5884 5884 5884 5885 5886 5887 5887 5888 5888 5889 5890 5891 5891 5892
5922 5922 5923 5924 5924 5924 5924 5924 5923 5922 5922 5920 5918 5916 5913 5911 5909 5907 5904 5902 5900 5898 5896 5895 5893 5892 5890 5889 5888 5887 5886 5886 5885 5885 5884 5884 5884 5885 5885 5886 5887 5887 5888 5888 5889 5889 5890 5890 5891
5921 5922 5922 5923 5924 5923 5923 5924 5924 5923 5922 5921 5919 5917 5915 5913 5911 5908 5906 5904 5902 5900 5898 5896 5895 5893 5892 5891 5890 5889 5888 5887 5886 5886 5885 5885 5885 5885 5885 5886 5887 5887 5887 5888 5888 5888 5889 5889 5890
5919 5921 5922 5923 5923 5923 5923 5923 5923 5922 5922 5921 5920 5918 5916 5914 5912 5910 5907 5905 5904 5902 5900 5898 5896 5895 5894 5892 5891 5890 5889 5888 5887 5886 5886 5885 5885 5885 5885 5886 5886 5886 5887 5887 5887 5888 5888 5888 5888
5917 5919 5920 5921 5921 5921 5922 5923 5923 5922 5922 5921 5920 5918 5917 5915 5913 5911 5908 5906 5905 5903 5901 5899 5898 5896 5895 5893 5892 5891 5890 5889 5888 5887 5887 5886 5885 5885 5885 5886 5886 5886 5886 5886 5887 5887 5887 5887 5887
5915 5916 5918 5918 5919 5920 5921 5921 5922 5921 5921 5920 5919 5918 5917 5915 5913 5911 5909 5907 5905 5904 5902 5900 5899 5897 5896 5894 5893 5891 5890 5890 5889 5888 5887 5886 5886 5885 5885 5885 5885 5885 5885 5885 5885 5885 5885 5885 5885
5911 5913 5914 5916 5916 5918 5918 5919 5921 5920 5920 5919 5919 5918 5916 5915 5913 5911 5909 5908 5906 5905 5903 5901 5900 5898 5896 5895 5893 5892 5891 5890 5889 5888 5887 5886 5886 5885 5885 5884 5884 5884 5884 5884 5884 5884 5884 5883 5883
5907 5910 5911 5912 5913 5915 5916 5916 5918 5919 5919 5918 5917 5917 5916 5914 5913 5911 5910 5908 5906 5905 5903 5902 5900 5899 5897 5896 5894 5893 5891 5890 5889 5888 5887 5886 5886 5885 5884 5883 5883 5882 5882 5882 5882 5882 5881 5881 5881
5903 5906 5908 5908 5910 5911 5913 5913 5915 5917 5917 5916 5916 5915 5914 5913 5912 5911 5909 5908 5906 5905 5903 5902 5901 5899 5898 5896 5895 5893 5892 5890 5889 5888 5887 5886 5885 5884 5883 5882 5882 5881 5880 5880 5880 5879 5879 5878 5878
5898 5901 5904 5905 5906 5908 5909 5909 5912 5914 5914 5914 5913 5913 5912 5912 5911 5910 5909 5907 5906 5904 5903 5902 5900 5899 5898 5896 5895 5893 5892 5890 5889 5888 5887 5886 5884 5883 5882 5881 5880 5879 5879 5878 5877 5877 5876 5876 5875
5894 5896 5899 5901 5902 5903 5904 5906 5908 5910 5911 5911 5911 5911 5910 5910 5909 5908 5907 5906 5904 5903 5902 5901 5900 5899 5897 5896 5894 5893 5891 5890 5889 5888 5886 5885 5883 5882 5881 5879 5879 5878 5877 5876 5875 5875 5874 5873 5872
5889 5891 5894 5895 5897 5898 5900 5902 5904 5906 5907 5908 5908 5908 5908 5907 5907 5906 5905 5904 5903 5902 5901 5900 5899 5897 5896 5895 5894 5892 5891 5889 5888 5887 5885 5884 5883 5881 5880 5878 5877 5876 5875 5874 5873 5872 5871 5870 5869
5884 5886 5888 5890 5892 5894 5895 5899 5900 5902 5903 5904 5905 5904 5904 5904 5904 5904 5903 5902 5901 5900 5899 5898 5897 5896 5895 5894 5892 5891 5889 5888 5887 5885 5884 5883 5882 5880 5879 5877 5875 5874 5873 5871 5871 5870 5868 5867 5866
5878 5880 5883 5886 5887 5889 5890 5896 5896 5897 5898 5899 5901 5901 5901 5901 5901 5900 5900 5899 5898 5897 5897 5896 5895 5894 5893 5892 5891 5890 5888 5886 5885 5884 5883 5882 5880 5879 5877 5875 5874 5872 5871 5869 5868 5867 5866 5865 5863